Pineville, WV

11:48 AM EDT on August 20, 2017 (GMT -0400)
Pineville

Weather History for KI16 - August, 2014

Change the Weather History Date:

Sunday, August 10, 2014

  Actual Average (KBKW) Record (KBKW)
Temperature  
Mean Temperature 72 °F -  
Max Temperature 78 °F 78 °F 98 °F (1926)
Min Temperature 65 °F 60 °F 43 °F (1940)
Cooling Degree Days 6    
Growing Degree Days 22 (Base 50)    
Moisture  
Dew Point 67 °F    
Average Humidity 87    
Maximum Humidity 100    
Minimum Humidity 73    
Precipitation  
Precipitation 0.00 in - - ()
Sea Level Pressure  
Sea Level Pressure 30.14 in    
Wind  
Wind Speed - (North)    
Max Wind Speed -    
Max Gust Speed -    
Visibility 10 miles    
Events Rain    
Averages and records for this station are not official NWS values.
T = Trace of Precipitation, MM = Missing Value Source: NWS Daily Summary

Daily Weather History Graph

Daily Weather History Graph

Search for Another Location

Airport or City:

Trip Planner

Search our weather history database for the weather conditions in past years. The results will help you decide how hot, cold, wet, or windy it might be!

Date:

Astronomy

Aug. 10, 2014 Rise Set
Actual Time 6:37 AM EDT 8:24 PM EDT
Civil Twilight 6:09 AM EDT 8:52 PM EDT
Nautical Twilight 5:35 AM EDT 9:27 PM EDT
Astronomical Twilight 4:58 AM EDT 10:03 PM EDT
Moon 8:12 PM EDT (8/10) 6:27 AM EDT (8/10)
Length of Visible Light 14h 43m
Length of Day
13h 47m
Full, 100% of the Moon is Illuminated
Aug 10
Full
Aug 10
Full
Aug 17
Last Quarter
Aug 25
New
Sep 2
First Quarter

Hourly Weather History & Observations

Time (EDT) Temp. Dew Point Humidity Pressure Visibility Wind Dir Wind Speed Gust Speed Precip Events Conditions
12:15 AM 66.0 °F 66.0 °F 100% 30.15 in 10.0 mi North - - N/A   Overcast
12:35 AM 67.1 °F 66.0 °F 96% 30.14 in 10.0 mi North - - N/A   Mostly Cloudy
12:55 AM 67.1 °F 65.3 °F 94% 30.14 in 10.0 mi North - - N/A   Scattered Clouds
1:15 AM 65.8 °F 64.9 °F 97% 30.14 in 10.0 mi North - - N/A   Clear
1:35 AM 66.2 °F 65.1 °F 96% 30.14 in 10.0 mi North - - N/A   Clear
1:55 AM 65.7 °F 65.1 °F 98% 30.14 in 10.0 mi North - - N/A   Clear
2:15 AM 65.8 °F 64.9 °F 97% 30.13 in 10.0 mi North - - N/A   Scattered Clouds
2:35 AM 66.4 °F 64.9 °F 95% 30.13 in 10.0 mi North - - N/A   Mostly Cloudy
2:55 AM 66.6 °F 65.3 °F 96% 30.13 in 10.0 mi North - - N/A   Overcast
3:15 AM 67.1 °F 65.3 °F 94% 30.12 in 10.0 mi North - - N/A   Overcast
3:35 AM 67.1 °F 65.3 °F 94% 30.12 in 10.0 mi North - - N/A   Overcast
3:55 AM 67.1 °F 65.3 °F 94% 30.13 in 10.0 mi North - - N/A   Overcast
4:15 AM 67.1 °F 65.3 °F 94% 30.12 in 10.0 mi North - - N/A   Overcast
4:35 AM 67.3 °F 65.3 °F 93% 30.12 in 10.0 mi North - - N/A   Overcast
4:55 AM 67.5 °F 65.3 °F 93% 30.12 in 10.0 mi North - - N/A   Overcast
5:15 AM 66.7 °F 65.3 °F 95% 30.12 in 10.0 mi North - - N/A   Mostly Cloudy
5:35 AM 66.6 °F 65.3 °F 96% 30.12 in 10.0 mi North - - N/A   Mostly Cloudy
6:15 AM 66.2 °F 65.3 °F 97% 30.13 in 10.0 mi North - - N/A   Mostly Cloudy
6:35 AM 66.2 °F 65.5 °F 98% 30.14 in 10.0 mi North - - N/A   Overcast
6:55 AM 66.2 °F 65.7 °F 98% 30.14 in 10.0 mi North - - N/A   Overcast
7:15 AM 66.7 °F 66.2 °F 98% 30.14 in 10.0 mi North - - N/A   Overcast
7:35 AM 66.7 °F 66.2 °F 98% 30.14 in 10.0 mi North - - N/A   Overcast
7:55 AM 67.5 °F 65.8 °F 95% 30.15 in 10.0 mi North - - N/A   Mostly Cloudy
8:15 AM 68.5 °F 66.2 °F 92% 30.15 in 10.0 mi North - - N/A   Overcast
8:35 AM 69.6 °F 66.2 °F 89% 30.15 in 10.0 mi North - - N/A   Overcast
8:55 AM 70.0 °F 66.4 °F 88% 30.16 in 10.0 mi North - - N/A   Overcast
9:15 AM 71.2 °F 66.9 °F 86% 30.16 in 10.0 mi North - - N/A   Overcast
9:35 AM 71.1 °F 67.1 °F 87% 30.16 in 10.0 mi North - - N/A   Overcast
9:55 AM 71.6 °F 67.1 °F 86% 30.16 in 10.0 mi North - - N/A   Overcast
10:15 AM 70.7 °F 68.0 °F 91% 30.16 in 5.0 mi North - - N/A Rain Light Rain
10:35 AM 71.6 °F 68.5 °F 90% 30.16 in 10.0 mi North - - N/A   Scattered Clouds
10:55 AM 73.0 °F 68.4 °F 85% 30.16 in 10.0 mi North - - N/A   Scattered Clouds
11:15 AM 73.8 °F 68.2 °F 83% 30.16 in 10.0 mi North - - N/A   Scattered Clouds
11:35 AM 75.2 °F 68.5 °F 80% 30.16 in 10.0 mi North - - N/A   Mostly Cloudy
11:55 AM 75.7 °F 68.9 °F 79% 30.16 in 10.0 mi North - - N/A   Overcast
12:15 PM 76.3 °F 68.9 °F 78% 30.16 in 10.0 mi North - - N/A   Mostly Cloudy
12:35 PM 77.4 °F 69.1 °F 76% 30.16 in 10.0 mi North - - N/A   Mostly Cloudy
12:55 PM 77.4 °F 69.4 °F 76% 30.16 in 10.0 mi North - - N/A   Overcast
1:15 PM 77.4 °F 69.3 °F 76% 30.16 in 10.0 mi North - - N/A   Overcast
1:35 PM 76.6 °F 68.9 °F 77% 30.15 in 10.0 mi North - - N/A   Overcast
1:55 PM 75.9 °F 68.4 °F 77% 30.15 in 10.0 mi North - - N/A   Overcast
2:15 PM 76.8 °F 68.7 °F 76% 30.15 in 10.0 mi North - - N/A   Overcast
2:35 PM 77.0 °F 68.4 °F 75% 30.15 in 10.0 mi North - - N/A   Overcast
2:55 PM 76.8 °F 69.6 °F 78% 30.15 in 10.0 mi North - - N/A   Overcast
3:15 PM 76.3 °F 68.5 °F 77% 30.15 in 10.0 mi North - - N/A   Overcast
3:35 PM 76.5 °F 68.9 °F 77% 30.14 in 10.0 mi North - - N/A   Overcast
3:55 PM 76.6 °F 68.2 °F 75% 30.14 in 10.0 mi North - - N/A   Overcast
4:15 PM 77.0 °F 68.5 °F 75% 30.13 in 10.0 mi North - - N/A   Overcast
4:35 PM 77.0 °F 68.4 °F 75% 30.13 in 10.0 mi North - - N/A   Overcast
4:55 PM 77.0 °F 68.9 °F 76% 30.12 in 10.0 mi North - - N/A   Overcast
5:15 PM 77.7 °F 69.4 °F 76% 30.12 in 10.0 mi North - - N/A   Overcast
5:35 PM 78.1 °F 68.9 °F 73% 30.11 in 10.0 mi North - - N/A   Overcast
5:55 PM 77.0 °F 69.6 °F 78% 30.12 in 10.0 mi North - - N/A   Overcast
6:15 PM 76.6 °F 68.9 °F 77% 30.12 in 10.0 mi North - - N/A   Overcast
6:35 PM 76.3 °F 69.3 °F 79% 30.12 in 10.0 mi North - - N/A   Overcast
6:55 PM 76.3 °F 68.4 °F 76% 30.12 in 10.0 mi North - - N/A   Overcast
7:15 PM 75.4 °F 68.4 °F 79% 30.12 in 10.0 mi North - - N/A   Overcast
7:35 PM 74.3 °F 69.1 °F 84% 30.12 in 10.0 mi North - - N/A   Overcast
7:55 PM 73.4 °F 69.8 °F 88% 30.11 in 10.0 mi North - - N/A   Overcast
8:15 PM 73.4 °F 68.0 °F 83% 30.11 in 10.0 mi North - - N/A   Mostly Cloudy
8:35 PM 73.0 °F 67.5 °F 83% 30.11 in 10.0 mi North - - N/A   Clear
8:55 PM 72.5 °F 67.3 °F 84% 30.11 in 10.0 mi North - - N/A   Clear
9:15 PM 71.6 °F 67.8 °F 88% 30.12 in 10.0 mi North - - N/A   Clear
9:35 PM 70.7 °F 67.6 °F 90% 30.13 in 10.0 mi North - - N/A   Mostly Cloudy
9:55 PM 70.2 °F 68.2 °F 93% 30.13 in 10.0 mi North - - N/A   Overcast
10:15 PM 70.9 °F 67.8 °F 90% 30.13 in 10.0 mi North - - N/A   Overcast
10:35 PM 70.5 °F 68.0 °F 92% 30.14 in 10.0 mi North - - N/A   Overcast
10:55 PM 71.8 °F 67.3 °F 86% 30.13 in 10.0 mi North - - N/A   Mostly Cloudy
11:15 PM 71.8 °F 67.3 °F 86% 30.12 in 10.0 mi North - - N/A   Scattered Clouds
11:35 PM 71.6 °F 67.3 °F 86% 30.13 in 10.0 mi North - - N/A   Scattered Clouds